#timestamp,LO_Frequency,Hit,StdDev 
1626692415.4,286047001.2,N
1626692435.3,286047001.0,N
1626692455.1,286047001.2,N
1626692475.8,286046998.8,N
1626692495.7,286046998.1,N
1626692515.5,286046999.3,N
1626692535.4,286046998.2,N
1626692555.2,286046998.1,N
1626692575.0,286047000.4,N
1626692575.9,286047000.4,N
1626692595.8,286047000.5,N
1626692615.6,286047001.1,N
1626692635.4,286047000.5,N
1626692655.3,286046998.6,N
1626692675.1,286046998.7,N
1626692695.9,286046999.3,N
1626692715.7,286046998.5,N
1626692735.5,286047000.6,N
1626692755.4,286047000.3,N
1626692775.2,286047000.2,N
1626692795.0,286046999.7,N
1626692796.0,286046999.7,N
1626692815.8,286047000.5,N
1626692835.6,286047002.5,N
1626692855.5,286047000.1,N
1626692875.3,286047001.8,N
1626692895.1,286047002.6,N
1626692915.9,286047001.6,N
1626692935.7,286046999.7,N
1626692955.6,286047000.9,N
1626692975.4,286046999.3,N
1626692995.2,286046999.2,N
1626693015.1,286046999.2,N
1626693016.0,286046999.2,N
1626693035.8,286046998.4,N
1626693055.6,286047000.4,N
1626693075.5,286047000.5,N
1626693095.3,286047000.3,N
1626693115.2,286047000.5,N
1626693135.0,286047000.6,N
1626693135.9,286047000.6,N
1626693155.8,286046998.1,N
1626693175.6,286046998.9,N
1626693195.4,286046997.7,N
1626693215.3,286046999.2,N
1626693235.1,286046997.1,N
1626693255.8,286046996.5,N
1626693275.7,286046996.8,N
1626693295.5,286046996.6,N
1626693315.3,286046996.6,N
1626693335.2,286046996.5,N
1626693355.0,286046998.7,N
1626693355.9,286046998.7,N
1626693375.8,286046999.0,N
1626693395.6,286047000.1,N
1626693415.4,286047004.1,N
1626693435.3,286047003.6,N
1626693455.1,286047003.8,N
1626693475.9,286047004.1,N
1626693495.7,286047002.9,N
1626693515.6,286047003.4,N
1626693535.4,286047005.9,N
1626693555.2,286047005.3,N
1626693575.1,286047005.2,N
1626693576.0,286047005.2,N
1626693595.8,286047006.0,N
1626693615.7,286047002.9,N
1626693635.5,286047006.0,N
1626693655.3,286047003.6,N
1626693675.2,286047003.5,N
1626693695.0,286047004.1,N
1626693695.9,286047004.1,N
1626693715.8,286047003.6,N
1626693735.6,286047003.1,N
1626693755.4,286047003.3,N
1626693775.3,286047003.5,N
1626693795.5,286047003.9,N
1626693815.3,286047000.0,N
1626693835.1,286047000.5,N
1626693855.9,286047000.6,N
1626693875.7,286047000.3,N
1626693895.5,286047000.7,N
1626693915.4,286046998.5,N
1626693935.2,286046999.4,N
1626693955.1,286047001.2,N
1626693956.0,286047001.2,N
1626693975.8,286047000.0,N
1626693995.6,286047000.7,N
1626694015.5,286047002.8,N
1626694035.3,286047000.5,N
1626694055.1,286047000.3,N
1626694075.9,286047000.7,N
1626694095.7,286046998.3,N
1626694115.6,286046998.2,N
1626694135.4,286046998.6,N
1626694155.2,286046999.6,N
1626694175.1,286046996.1,N
1626694195.8,286046996.2,N
1626694215.7,286046998.0,N
1626694235.5,286046995.1,N
1626694255.4,286046995.3,N
1626694275.2,286046995.3,N
1626694295.0,286046994.9,N
1626694295.9,286046994.9,N
1626694315.8,286046995.4,N
1626694335.6,286046995.4,N
1626694355.4,286046995.4,N
1626694375.3,286046993.3,N
1626694395.1,286046995.7,N
1626694415.9,286046993.3,N
1626694435.7,286046995.9,N
1626694455.5,286046996.1,N
1626694475.4,286046993.7,N
1626694495.2,286046993.4,N
1626694515.0,286046993.4,N
1626694516.0,286046993.4,N
1626694535.8,286046995.7,N
1626694555.6,286046993.9,N
1626694575.5,286046993.3,N
1626694595.3,286046995.3,N
1626694615.1,286046997.7,N
1626694635.9,286046997.6,N
1626694655.7,286046997.8,N
1626694675.6,286046995.4,N
1626694695.4,286046997.6,N
1626694715.2,286046997.7,N
1626694735.1,286046995.5,Y
1626694736.0,286046995.5,P
1626694755.8,286047002.8,P
1626694775.6,286047000.1,N
1626694795.5,286047000.6,N
1626694815.5,286047000.9,N
1626694835.4,286047000.4,N
1626694855.2,286047000.5,N
1626694875.1,286046998.6,N
1626694876.0,286046998.6,N
1626694895.8,286046998.2,N
1626694915.6,286047001.0,N
1626694935.5,286046998.3,N
1626694955.3,286047000.4,N
1626694975.1,286047000.2,N
1626694995.9,286047001.2,N
1626695015.7,286047000.5,N
1626695035.1,286047001.8,N
1626695036.0,286047001.8,N
1626695055.8,286047002.4,N
1626695075.7,286047002.2,N
1626695095.5,286047003.8,N
1626695115.3,286047004.2,N
1626695135.2,286047004.3,N
1626695155.0,286047001.9,N
1626695155.9,286047001.9,N
1626695175.8,286047001.4,N
1626695195.6,286047004.3,N
1626695215.4,286047004.4,N
1626695235.3,286047004.4,N
1626695255.1,286047001.8,N
1626695275.8,286047000.1,N
1626695295.7,286047000.9,N
1626695315.5,286047001.1,N
1626695335.4,286047000.4,N
1626695355.2,286047000.7,N
1626695375.0,286046998.2,N
1626695375.9,286046998.2,N
1626695395.8,286046998.5,N
1626695415.6,286047000.6,N
1626695435.4,286047000.5,N
1626695455.3,286047002.3,N
1626695475.1,286047002.6,N
1626695495.9,286047001.8,N
1626695515.7,286047001.3,N
1626695535.5,286047001.5,N
1626695555.4,286047001.6,N
1626695575.2,286047004.0,N
1626695595.0,286047004.3,N
1626695596.0,286047004.3,N
1626695615.8,286047004.4,N
1626695635.6,286047003.8,N
1626695655.5,286047003.6,N
1626695675.3,286047005.7,Y
1626695695.2,286047003.1,P
1626695715.9,286047003.2,P
1626695735.7,286047003.3,P
1626695755.6,286047003.3,Y
1626695775.4,286047001.0,P
1626695795.2,286047000.6,N
1626695815.1,286047000.9,N
1626695816.0,286047000.9,N
1626695835.8,286046999.9,N
1626695855.7,286047002.6,N
1626695875.5,286047001.8,N
1626695895.4,286047002.2,N
1626695915.2,286047001.6,N
1626695935.0,286047000.0,N
1626695935.9,286047000.0,N
1626695955.8,286047000.8,N
1626695975.6,286047001.2,N
1626695995.5,286046998.7,N
